FlightSource - Aviation Photo Database

World Wide Airport Lookup


Search by ICAO
Or
Search by City

FlightSource.ca - Aviation Photo Database - Artesia Municipal Airport Information
Airport Identification
Name: Artesia Municipal Airport
ICAO: KATS
IATA:
Airport Location
City: Artesia
Region: NM
Country: United States
Continent: North America
Latitude: 32.8525
Longitude: -104.468
Airport Information
Type: Small Airport
Elevation: 3541 Feet ASL
Flight Status: KATS
More Info: KATS
Airport Weather    
Metar: KATS 120615Z AUTO 31010KT 10SM CLR 03/M14 A3042 RMK AO2
TAF:


Advertisement